Ludington, MI

6:10 AM EST on November 15, 2019 (GMT -0500)
Mason County

Weather History for KLDM - June, 2019

Change the Weather History Date:

Tuesday, June 4, 2019

  Actual Average Record
Temperature  
Mean Temperature 56 °F -  
Max Temperature 68 °F 72 °F 82 °F (2011)
Min Temperature 43 °F 46 °F 33 °F (1977)
Degree Days  
Heating Degree Days 10    
Growing Degree Days 6 (Base 50)    
Moisture  
Dew Point 48 °F    
Average Humidity 67    
Maximum Humidity 90    
Minimum Humidity 48    
Precipitation  
Precipitation 0.00 in - - ()
Sea Level Pressure  
Sea Level Pressure 29.92 in    
Wind  
Wind Speed 6 mph (SSW)    
Max Wind Speed 18 mph    
Max Gust Speed 29 mph    
Visibility 10 miles    
Events      
Averages and records for this station are not official NWS values.
T = Trace of Precipitation, MM = Missing Value Source: NWS Daily Summary

Daily Weather History Graph

Daily Weather History Graph

Search for Another Location

Airport or City:

Astronomy

Jun. 04, 2019 Rise Set
Actual Time 6:04 AM EDT 9:23 PM EDT
Civil Twilight 5:29 AM EDT 9:59 PM EDT
Nautical Twilight 4:42 AM EDT 10:45 PM EDT
Astronomical Twilight 3:45 AM EDT 11:43 PM EDT
Moon 7:13 AM EDT (6/4) 10:51 PM EDT (6/4)
Length of Visible Light 16h 30m
Length of Day
15h 19m
New Moon, 2% of the Moon is Illuminated
Jun 4
New Moon
Jun 10
First Quarter
Jun 17
Full
Jun 25
Last Quarter
Jul 2
New

Hourly Weather History & Observations

Time (EDT) Temp. Windchill Dew Point Humidity Pressure Visibility Wind Dir Wind Speed Gust Speed Precip Events Conditions
12:15 AM 43.0 °F - 40.3 °F 90% 30.08 in 10.0 mi Calm Calm - N/A   Clear
12:16 AM 43.0 °F - 40.1 °F 90% 30.08 in 10.0 mi Calm Calm - N/A   Clear
12:36 AM 44.2 °F - 39.4 °F 83% 30.08 in 10.0 mi Calm Calm - N/A   Clear
12:55 AM 44.4 °F - 39.7 °F 84% 30.07 in 10.0 mi Calm Calm - N/A   Clear
1:15 AM 43.5 °F - 39.6 °F 86% 30.06 in 10.0 mi Calm Calm - N/A   Mostly Cloudy
1:35 AM 44.6 °F - 39.7 °F 83% 30.05 in 10.0 mi Calm Calm - N/A   Scattered Clouds
1:36 AM 44.6 °F - 39.7 °F 83% 30.05 in 10.0 mi Calm Calm - N/A   Scattered Clouds
1:55 AM 44.4 °F - 39.7 °F 84% 30.04 in 10.0 mi Calm Calm - N/A   Clear
2:16 AM 44.2 °F - 39.6 °F 84% 30.04 in 10.0 mi Calm Calm - N/A   Scattered Clouds
2:35 AM 44.6 °F - 39.4 °F 82% 30.04 in 10.0 mi Calm Calm - N/A   Scattered Clouds
2:55 AM 44.6 °F - 39.7 °F 83% 30.04 in 10.0 mi Calm Calm - N/A   Mostly Cloudy
2:57 AM 44.4 °F - 39.9 °F 84% 30.04 in 10.0 mi Calm Calm - N/A   Mostly Cloudy
3:15 AM 45.9 °F - 40.3 °F 81% 30.03 in 10.0 mi Calm Calm - N/A   Overcast
3:16 AM 45.9 °F - 40.3 °F 81% 30.03 in 10.0 mi Calm Calm - N/A   Overcast
3:35 AM 46.0 °F - 42.6 °F 88% 30.03 in 10.0 mi Calm Calm - N/A   Overcast
3:37 AM 46.4 °F - 42.1 °F 85% 30.03 in 10.0 mi Calm Calm - N/A   Overcast
3:55 AM 46.8 °F - 41.9 °F 83% 30.02 in 10.0 mi ESE 3.5 mph - N/A   Overcast
3:56 AM 46.8 °F - 41.9 °F 83% 30.02 in 10.0 mi East 3.5 mph - N/A   Overcast
4:15 AM 48.4 °F - 40.1 °F 73% 30.02 in 10.0 mi ESE 4.6 mph - N/A   Overcast
4:17 AM 48.2 °F - 41.0 °F 76% 30.02 in 10.0 mi ESE 4.6 mph - N/A   Overcast
4:35 AM 46.8 °F - 43.2 °F 87% 30.02 in 10.0 mi East 3.5 mph - N/A   Overcast
4:36 AM 46.8 °F - 43.3 °F 88% 30.02 in 10.0 mi ESE 3.5 mph - N/A   Overcast
4:55 AM 47.8 °F - 39.6 °F 73% 30.02 in 10.0 mi Calm Calm - N/A   Overcast
4:57 AM 48.0 °F - 39.7 °F 73% 30.02 in 10.0 mi Calm Calm - N/A   Overcast
5:15 AM 46.0 °F - 40.1 °F 80% 30.01 in 10.0 mi Calm Calm - N/A   Mostly Cloudy
5:16 AM 45.9 °F 44.6 °F 39.9 °F 80% 30.01 in 10.0 mi ESE 3.5 mph - N/A   Mostly Cloudy
5:35 AM 45.5 °F - 39.4 °F 79% 30.00 in 10.0 mi Calm Calm - N/A   Clear
5:37 AM 45.7 °F 44.4 °F 39.2 °F 78% 30.00 in 10.0 mi East 3.5 mph - N/A   Clear
5:55 AM 44.1 °F - 39.6 °F 84% 29.99 in 10.0 mi Calm Calm - N/A   Clear
6:15 AM 46.2 °F - 37.9 °F 73% 29.99 in 10.0 mi Calm Calm - N/A   Clear
6:36 AM 49.6 °F - 36.1 °F 60% 29.98 in 10.0 mi SSE 4.6 mph - N/A   Clear
6:55 AM 53.2 °F - 35.2 °F 51% 29.99 in 10.0 mi SSE 5.8 mph - N/A   Clear
6:56 AM 53.4 °F - 35.2 °F 50% 29.99 in 10.0 mi SSE 5.8 mph - N/A   Clear
7:15 AM 54.9 °F - 35.6 °F 48% 29.97 in 10.0 mi SSE 5.8 mph - N/A   Clear
7:35 AM 56.3 °F - 37.0 °F 48% 29.96 in 10.0 mi SSE 4.6 mph - N/A   Clear
7:36 AM 56.3 °F - 37.0 °F 48% 29.96 in 10.0 mi SSE 4.6 mph - N/A   Clear
7:55 AM 58.5 °F - 38.8 °F 48% 29.96 in 10.0 mi South 6.9 mph - N/A   Clear
7:56 AM 58.5 °F - 38.8 °F 48% 29.96 in 10.0 mi South 6.9 mph - N/A   Clear
8:15 AM 59.9 °F - 40.8 °F 49% 29.96 in 10.0 mi South 6.9 mph - N/A   Clear
8:35 AM 62.2 °F - 44.4 °F 52% 29.96 in 10.0 mi SSW 10.4 mph 19.6 mph N/A   Clear
8:36 AM 62.4 °F - 44.6 °F 52% 29.96 in 10.0 mi SSW 10.4 mph 19.6 mph N/A   Clear
8:55 AM 62.6 °F - 45.5 °F 54% 29.96 in 10.0 mi SW 16.1 mph 20.7 mph N/A   Clear
9:15 AM 63.0 °F - 47.5 °F 57% 29.96 in 10.0 mi SW 16.1 mph 20.7 mph N/A   Clear
9:16 AM 63.0 °F - 47.5 °F 57% 29.96 in 10.0 mi SW 15.0 mph 20.7 mph N/A   Clear
9:35 AM 63.0 °F - 48.2 °F 59% 29.97 in 10.0 mi SW 12.7 mph 23.0 mph N/A   Clear
9:36 AM 63.0 °F - 48.2 °F 59% 29.96 in 10.0 mi SW 12.7 mph 23.0 mph N/A   Clear
9:55 AM 63.5 °F - 48.9 °F 59% 29.96 in 10.0 mi SW 13.8 mph - N/A   Clear
10:15 AM 63.0 °F - 48.9 °F 60% 29.96 in 10.0 mi SW 13.8 mph 20.7 mph N/A   Scattered Clouds
10:35 AM 63.1 °F - 49.5 °F 61% 29.96 in 7.0 mi SW 12.7 mph 18.4 mph N/A   Scattered Clouds
10:36 AM 63.0 °F - 49.3 °F 61% 29.96 in 7.0 mi SW 11.5 mph 18.4 mph N/A   Scattered Clouds
10:55 AM 63.3 °F - 50.0 °F 62% 29.95 in 7.0 mi SW 13.8 mph 20.7 mph N/A   Mostly Cloudy
10:56 AM 63.3 °F - 50.0 °F 62% 29.95 in 7.0 mi SW 13.8 mph 20.7 mph N/A   Scattered Clouds
11:15 AM 64.6 °F - 51.1 °F 62% 29.95 in 7.0 mi SW 11.5 mph 18.4 mph N/A   Scattered Clouds
11:17 AM 64.9 °F - 51.4 °F 62% 29.95 in 7.0 mi SW 12.7 mph - N/A   Scattered Clouds
11:35 AM 64.6 °F - 50.9 °F 61% 29.95 in 7.0 mi SW 12.7 mph - N/A   Mostly Cloudy
11:55 AM 64.4 °F - 51.1 °F 62% 29.95 in 7.0 mi SW 13.8 mph - N/A   Overcast
11:56 AM 64.4 °F - 51.3 °F 62% 29.95 in 7.0 mi SW 12.7 mph - N/A   Overcast
12:15 PM 66.7 °F - 51.8 °F 59% 29.94 in 7.0 mi SW 16.1 mph 23.0 mph N/A   Mostly Cloudy
12:35 PM 66.6 °F - 51.6 °F 59% 29.93 in 10.0 mi SW 17.3 mph 25.3 mph N/A   Overcast
12:55 PM 64.6 °F - 51.6 °F 63% 29.94 in 10.0 mi SW 15.0 mph 24.2 mph N/A   Overcast
1:15 PM 63.5 °F - 52.3 °F 67% 29.93 in 10.0 mi SW 13.8 mph - N/A   Overcast
1:16 PM 63.5 °F - 52.2 °F 67% 29.93 in 10.0 mi SW 13.8 mph - N/A   Overcast
1:35 PM 65.5 °F - 54.0 °F 66% 29.92 in 10.0 mi SSW 18.4 mph 26.5 mph N/A   Overcast
1:55 PM 64.2 °F - 52.3 °F 65% 29.91 in 10.0 mi SSW 15.0 mph 20.7 mph N/A   Overcast
1:56 PM 64.2 °F - 52.3 °F 65% 29.91 in 10.0 mi SSW 15.0 mph 20.7 mph N/A   Overcast
2:15 PM 64.6 °F - 52.3 °F 64% 29.90 in 10.0 mi SW 17.3 mph 23.0 mph N/A   Overcast
2:36 PM 64.9 °F - 52.7 °F 64% 29.90 in 10.0 mi SW 17.3 mph 23.0 mph N/A   Overcast
2:55 PM 66.4 °F - 54.1 °F 65% 29.89 in 10.0 mi SSW 17.3 mph 25.3 mph N/A   Scattered Clouds
2:56 PM 66.4 °F - 54.0 °F 64% 29.89 in 10.0 mi SW 17.3 mph 28.8 mph N/A   Scattered Clouds
3:15 PM 66.2 °F - 53.8 °F 64% 29.89 in 10.0 mi SW 16.1 mph 25.3 mph N/A   Clear
3:17 PM 66.4 °F - 54.0 °F 64% 29.89 in 10.0 mi SW 15.0 mph 25.3 mph N/A   Clear
3:35 PM 67.8 °F - 54.5 °F 62% 29.88 in 10.0 mi SW 13.8 mph 17.3 mph N/A   Clear
3:55 PM 67.1 °F - 54.0 °F 63% 29.87 in 10.0 mi SW 15.0 mph 23.0 mph N/A   Clear
4:15 PM 67.8 °F - 54.3 °F 62% 29.86 in 10.0 mi SW 13.8 mph 19.6 mph N/A   Clear
4:16 PM 68.0 °F - 54.3 °F 62% 29.86 in 10.0 mi SW 16.1 mph 19.6 mph N/A   Clear
4:35 PM 67.6 °F - 53.4 °F 60% 29.85 in 10.0 mi SSW 13.8 mph 19.6 mph N/A   Clear
4:55 PM 67.3 °F - 52.9 °F 60% 29.85 in 10.0 mi SSW 15.0 mph 21.9 mph N/A   Clear
4:56 PM 67.3 °F - 52.9 °F 60% 29.84 in 10.0 mi SSW 13.8 mph 21.9 mph N/A   Clear
5:15 PM 67.1 °F - 52.3 °F 59% 29.84 in 10.0 mi SSW 13.8 mph 19.6 mph N/A   Clear
5:35 PM 67.1 °F - 51.4 °F 57% 29.84 in 10.0 mi SSW 15.0 mph 23.0 mph N/A   Clear
5:36 PM 67.1 °F - 51.4 °F 57% 29.84 in 10.0 mi SW 13.8 mph 23.0 mph N/A   Clear
5:55 PM 66.7 °F - 50.9 °F 57% 29.83 in 10.0 mi SSW 12.7 mph 21.9 mph N/A   Scattered Clouds
6:15 PM 67.8 °F - 50.7 °F 54% 29.82 in 10.0 mi SSW 11.5 mph 18.4 mph N/A   Mostly Cloudy
6:16 PM 67.6 °F - 50.7 °F 55% 29.82 in 10.0 mi South 10.4 mph - N/A   Mostly Cloudy
6:35 PM 68.0 °F - 50.2 °F 53% 29.81 in 10.0 mi South 9.2 mph - N/A   Overcast
6:36 PM 68.0 °F - 50.2 °F 53% 29.81 in 10.0 mi South 11.5 mph 16.1 mph N/A   Overcast
6:55 PM 68.0 °F - 50.2 °F 53% 29.80 in 10.0 mi SSW 12.7 mph 17.3 mph N/A   Overcast
6:56 PM 68.0 °F - 50.2 °F 53% 29.80 in 10.0 mi SSW 11.5 mph 17.3 mph N/A   Overcast
7:15 PM 67.3 °F - 51.1 °F 56% 29.80 in 10.0 mi SSW 11.5 mph 17.3 mph N/A   Overcast
7:35 PM 67.5 °F - 52.3 °F 58% 29.79 in 10.0 mi SSW 12.7 mph 18.4 mph N/A   Overcast
7:36 PM 67.5 °F - 52.3 °F 58% 29.79 in 10.0 mi SSW 10.4 mph 18.4 mph N/A   Overcast
7:55 PM 67.1 °F - 53.1 °F 61% 29.78 in 10.0 mi South 12.7 mph - N/A   Overcast
8:16 PM 67.3 °F - 54.0 °F 62% 29.77 in 10.0 mi South 6.9 mph - N/A   Overcast
8:35 PM 67.5 °F - 54.5 °F 63% 29.77 in 10.0 mi South 4.6 mph - N/A   Overcast
8:55 PM 67.5 °F - 54.9 °F 64% 29.77 in 10.0 mi SSE 3.5 mph - N/A   Overcast
8:57 PM 67.5 °F - 55.0 °F 64% 29.77 in 10.0 mi SE 3.5 mph - N/A   Overcast
9:15 PM 67.5 °F - 54.7 °F 64% 29.77 in 10.0 mi SE 3.5 mph - N/A   Overcast
9:35 PM 67.5 °F - 54.7 °F 64% 29.77 in 10.0 mi SSE 4.6 mph - N/A   Overcast
9:55 PM 67.5 °F - 54.7 °F 64% 29.77 in 10.0 mi South 4.6 mph - N/A   Overcast
10:15 PM 66.7 °F - 55.4 °F 67% 29.77 in 10.0 mi SSE 6.9 mph - N/A   Overcast
10:35 PM 65.5 °F - 56.5 °F 73% 29.76 in 10.0 mi South 6.9 mph - N/A   Mostly Cloudy
10:55 PM 64.8 °F - 57.7 °F 78% 29.76 in 10.0 mi South 5.8 mph - N/A   Mostly Cloudy
10:56 PM 64.8 °F - 57.9 °F 78% 29.76 in 10.0 mi South 4.6 mph - N/A   Mostly Cloudy
11:15 PM 65.3 °F - 57.6 °F 76% 29.75 in 10.0 mi SSE 4.6 mph - N/A   Overcast
11:16 PM 65.3 °F - 57.6 °F 76% 29.75 in 10.0 mi SSE 4.6 mph - N/A   Overcast
11:35 PM 65.8 °F - 57.2 °F 74% 29.74 in 10.0 mi South 3.5 mph - N/A   Overcast
11:55 PM 66.2 °F - 57.2 °F 73% 29.74 in 10.0 mi SSE 4.6 mph - N/A   Overcast